Maya-2 (47929 NORAD) Tracking and Keplerian Element Data

This shows tracking and keplerian element data for the satellite.

Feedback or suggestion? Click here.




ElementValue
Catalog47929
NameMaya-2
Epoch Orbit7482
Epoch Day187.50330417
Epoch Year2022
RAAN198.3492
Inclination51.6123
Eccentricity0.0003382
Argument of Perigee301.7247
Mean Anonmoly58.3448
Mean Motion16.37241531
Decay Rate0.06258577
L11 47929U 98067SF 22187.50330417 .06258577 12351-4 62901-3 0 9991
L22 47929 51.6123 198.3492 0003382 301.7247 58.3448 16.37241531 74823



Live tracking and technical data element details for Maya-2 (NORAD 47929). Maya-2 can be tracked NOW for your location showing map with azimuth and elevation plus other details from your city location.







IsCatalogInMostPopularTable: catalog: 47929, numindb: 89
Update: records affected: 1



GetName: 47929 Maya-2

Hit Count: updated at: Fri, 02 Dec 2022 12:45:49 GMT